Flag for Canada Weather past 2 weeks in Prince George, British Columbia, Canada

Now
48 °F

Clear.


Feels Like: 47 °F
Forecast: 42 / 77 °F
Wind: 3 mph from Northwest

Location: Prince George

Current Time: Aug 20, 2014 at 1:57:11 AM

Latest Report: Aug 20, 2014 at 1:00 AM


Visibility: 9 mi

Pressure: 29.87 "Hg

Humidity: 82%

Dew point: 43 °F

Location of Prince GeorgeLocation

Historic Weather in Prince George — Graph

°F

Prince George temperature yesterday

Maximum temperature yesterday: 70 °F (at 4:00 PM)
Minimum temperature yesterday: 48 °F (at 6:00 AM)
Average temperature yesterday: 59 °F

Past Weeks' High & Low Weather Summary

 TemperatureHumidityPressure
High90 °F (Aug 11, 3:00 PM)100% (Aug 17, 6:00 AM)30.27 "Hg (Aug 17, 6:00 AM)
Low39 °F (Aug 7, 4:00 AM)21% (Aug 13, 4:00 PM)29.80 "Hg (Aug 19, 5:00 PM)
Average65 °F59%30.00 "Hg
* Reported Midnight between Aug 4 and Aug 5 — Midnight between Aug 19 and Aug 20, Prince George, Weather by CustomWeather, © 2014

Note: Actual official high and low records may vary slightly from our data, if they occured in-between our weather recording intervals... More about our weather records

Advertising

Prince George weather history for previous 24 hours

 ConditionsComfort  
Time TempWeatherWind HumidityBarometerVisibility
12:00 AM
Aug 20
48 °FClear.8 mph82%29.86 "Hg9 mi
11:00 PM
Aug 19
50 °FClear.7 mph82%29.84 "Hg9 mi
10:00 PM54 °FClear.6 mph72%29.83 "Hg9 mi
9:00 PM57 °FSunny.10 mph63%29.82 "Hg9 mi
8:00 PM63 °FSunny.2 mph49%29.80 "Hg9 mi
7:00 PM68 °FScattered clouds.6 mph30%29.80 "Hg9 mi
6:00 PM70 °FSunny.8 mph29%29.80 "Hg9 mi
5:00 PM70 °FScattered clouds.7 mph29%29.80 "Hg9 mi
4:00 PM70 °FPartly sunny.8 mph31%29.81 "Hg9 mi
3:00 PM68 °FScattered clouds.14 mph33%29.82 "Hg9 mi
2:00 PM66 °FPassing clouds.7 mph37%29.84 "Hg9 mi
1:00 PM63 °FPartly sunny.8 mph45%29.85 "Hg9 mi
12:00 PM64 °FPartly sunny.5 mph43%29.85 "Hg9 mi
11:00 AM63 °FBroken clouds.10 mph52%29.85 "Hg9 mi
10:00 AM59 °FSunny.7 mph59%29.87 "Hg9 mi
9:00 AM57 °FSunny.7 mph63%29.87 "Hg9 mi
8:00 AM55 °FSunny.7 mph72%29.87 "Hg9 mi
7:00 AM50 °FSunny.6 mph82%29.87 "Hg9 mi
6:00 AM48 °FClear.3 mph87%29.87 "Hg9 mi
5:00 AM54 °FOvercast.8 mph77%29.86 "Hg9 mi
4:00 AM54 °FPassing clouds.7 mph82%29.85 "Hg9 mi
3:00 AM55 °FPassing clouds.5 mph82%29.84 "Hg9 mi
2:00 AM55 °FPassing clouds.8 mph82%29.83 "Hg9 mi
1:00 AM55 °FPassing clouds.2 mph88%29.84 "Hg9 mi
Weather by CustomWeather, © 2014

See weather overviewHow to use our weather pages